Regional Weather Roundup
Issued by NWS

Home | Current Version | Previous Version | Text Only | Print | Product List | Glossary Off
Versions: 1 2 3 4 5 6 7 8 9 10 11 12 13 14 15 16 17 18 19 20 21 22 23 24 25 26 27 28 29 30 31 32 33 34 35 36 37 38 39 40 41 42 43 44 45 46 47 48 49 50

000
ASUS44 KMEG 191710
RWRTN
TENNESSEE HOURLY STATE WEATHER ROUNDUP
NATIONAL WEATHER SERVICE MEMPHIS TN
1100 AM CST SUN FEB 19 2017

TNZ002-004-019-021-049-052-054-088>092-191800-
WEST TENNESSEE

CITY           SKY/WX    TMP DP  RH WIND       PRES   REMARKS
MEMPHIS INTL   MOSUNNY   68  55  63 VRB6      30.11S
NWS MEMPHIS      N/A     67 N/A N/A MISG        N/A
JACKSON        SUNNY     65  56  72 CALM      30.13R
UNION CITY     SUNNY     63  61  94 CALM      30.11R
PARIS          SUNNY     63  54  72 CALM      30.11S
HUNTINGDON     SUNNY     64  55  72 W5        30.11S
$$

TNZ008-025-027-028-033-062-065-066-191800-
NORTH MIDDLE TENNESSEE

CITY           SKY/WX    TMP DP  RH WIND       PRES   REMARKS
NASHVILLE      CLOUDY    61  50  67 CALM      30.14F
PORTLAND       CLOUDY    57  52  82 CALM      30.13F
CLARKSVILLE    CLOUDY    59  53  80 CALM      30.12S
SMYRNA         PTSUNNY   60  51  72 NE5       30.15F
COOKEVILLE     MOSUNNY   59  48  67 CALM      30.13F
GALLATIN       CLOUDY    55  52  88 CALM      30.17S
CROSSVILLE     PTSUNNY   56  46  69 CALM      30.15S
$$

TNZ061-075-076-078-094-096-097-191800-
SOUTH MIDDLE TENNESSEE

CITY           SKY/WX    TMP DP  RH WIND       PRES   REMARKS
FAYETTEVILLE   SUNNY     61  54  77 N8        30.14S
TULLAHOMA      MOSUNNY   59  50  72 NE5       30.14F
WINCHESTER     PTSUNNY   61  52  72 VRB7      30.14S
MCMINNVILLE    MOSUNNY   61  54  77 NE8       30.14F
COLUMBIA       SUNNY     63  63 100 E5        30.12F
SHELBYVILLE    MOSUNNY   63  54  72 VRB6      30.14F
$$

TNZ017-018-042-046-047-191800-
NORTHEAST TENNESSEE

CITY           SKY/WX    TMP DP  RH WIND       PRES   REMARKS
TRI CITIES     CLOUDY    55  46  71 NW3       30.13S
ELIZABETHTON   CLOUDY    54  48  82 W6        30.13R
$$

TNZ012-013-036-069-073-074-191800-
CENTRAL EAST TENNESSEE

CITY           SKY/WX    TMP DP  RH WIND       PRES   REMARKS
KNOXVILLE      CLOUDY    57  47  69 N6        30.15R HAZE
OAK RIDGE      CLOUDY    58  47  66 CALM      30.17R
GATLINBURG     CLOUDY    55  46  71 CALM      30.14S
MORRISTOWN     CLOUDY    55  46  71 NW8       30.14R
JACKSBORO      CLOUDY    57  46  67 CALM      30.18S
$$

TNZ083-085-099-191800-
SOUTHEAST TENNESSEE

CITY           SKY/WX    TMP DP  RH WIND       PRES   REMARKS
CHATTANOOGA    PTSUNNY   61  51  70 N9        30.15R
$$

SKY/WX REPORTED AS FAIR MEANS FEW OR NO CLOUDS BELOW
12 THOUSAND FEET.





USA.gov is the U.S. government's official web portal to all federal, state and local government web resources and services.